User: anonymous   Login
Location: Unspecified
(0.0000°N, 0.0000°E)
Time: 11:21:48
(UTC+00:00)
Language:

USA 200 - Orbit

View from above orbital plane
View from above orbital plane
View from above satellite
View from above satellite

Ground track
Ground track

The orbit data is extracted from the following two-line orbital elements,

1 32706U 08010A   18191.62101367 0.00000000  00000-0  00000-0 0    06
2 32706  63.3638 295.4084 7040255 271.8782  15.9448  2.00623000    03
Epoch (UTC): 10 July 2018 14:54:15
Eccentricity: 0.7040255
inclination: 63.3638°
perigee height: 1481 km
apogee height: 38872 km
right ascension of ascending node: 295.4084°
argument of perigee: 271.8782°
revolutions per day: 2.00623000
mean anomaly at epoch: 15.9448°
orbit number at epoch: 0

The dashed part of the orbit path shows where the satellite is in the earth's shadow,  

DLR